Weather History for Eelde, Netherlands

Change the Weather History Date:

Thursday, May 22, 2014

  Actual Average Record
Temperature  
Mean Temperature 68 °F -  
Max Temperature 74 °F 66 °F 82 °F (2012)
Min Temperature 60 °F 47 °F 37 °F (2004)
Cooling Degree Days 2    
Growing Degree Days 18 (Base 50)    
Moisture  
Dew Point 55 °F    
Average Humidity 62    
Maximum Humidity 88    
Minimum Humidity 30    
Precipitation  
Precipitation 0.12 in 0.09 in - ()
Sea Level Pressure  
Sea Level Pressure 29.72 in    
Wind  
Wind Speed 7 mph ()    
Max Wind Speed 17 mph    
Max Gust Speed 29 mph    
Visibility 8.4 miles    
Events Rain    
Averages and records for this station are not official NWS values.
T = Trace of Precipitation, MM = Missing Value Source: Averaged Metar Reports

Daily Weather History Graph

Daily Weather History Graph

Search for Another Location

Airport:

Trip Planner

Search our weather history database for the weather conditions in past years. The results will help you decide how hot, cold, wet, or windy it might be!

Date:

Astronomy

May. 22, 2014 Rise Set
Actual Time 5:24 AM CEST 9:36 PM CEST
Civil Twilight 4:38 AM CEST 10:23 PM CEST
Nautical Twilight 3:31 AM CEST 11:31 PM CEST
Astronomical Twilight 2:02 AM CEST 12:57 AM CEST
Moon 2:33 AM CEST (5/22) 2:12 PM CEST (5/22)
Length of Visible Light 17h 44m
Length of Day
16h 11m
Last Quarter, 40% of the Moon is Illuminated
May 22
Last Quarter
May 28
New
Jun 5
First Quarter
Jun 13
Full
Jun 19
Last Quarter

Hourly Weather History & Observations

Time (CEST) Temp. Dew Point Humidity Pressure Visibility Wind Dir Wind Speed Gust Speed Precip Events Conditions
12:00 AM 69 °F 58 °F 59% 29.72 in 16 mi ESE 6.7 mph - - Rain Light Drizzle
12:25 AM 66.2 °F 59.0 °F 78% 29.68 in 6.2 mi East 5.8 mph - N/A   Mostly Cloudy
12:55 AM 68.0 °F 59.0 °F 73% 29.65 in 6.2 mi ESE 6.9 mph - N/A   Unknown
1:00 AM 67 °F 58 °F 66% 29.67 in 19 mi ESE 6.7 mph - - Rain Rain
1:25 AM 68.0 °F 57.2 °F 68% 29.65 in 6.2 mi East 6.9 mph - N/A   Unknown
1:55 AM 66.2 °F 57.2 °F 73% 29.62 in 6.2 mi East 5.8 mph - N/A   Unknown
2:00 AM 67 °F 57 °F 63% 29.64 in 19 mi East 6.7 mph - -   Partly Cloudy
2:25 AM 66.2 °F 57.2 °F 73% 29.62 in 6.2 mi ESE 4.6 mph - N/A   Unknown
2:55 AM 68.0 °F 57.2 °F 68% 29.62 in 6.2 mi SE 5.8 mph - N/A   Unknown
3:00 AM 68 °F 57 °F 59% 29.67 in 28 mi South 6.7 mph - -   Overcast
3:25 AM 66.2 °F 59.0 °F 78% 29.71 in 6.2 mi SW 17.3 mph - N/A Rain Light Rain Showers
3:55 AM 64.4 °F 59.0 °F 83% 29.68 in 6.2 mi SW 5.8 mph - N/A   Scattered Clouds
4:00 AM 64 °F 58 °F 77% 29.69 in 14 mi South 4.5 mph - - Rain Rain
4:25 AM 62.6 °F 59.0 °F 88% 29.65 in 6.2 mi Variable 2.3 mph - N/A   Unknown
4:55 AM 62.6 °F 59.0 °F 88% 29.65 in 6.2 mi East 5.8 mph - N/A   Partly Cloudy
5:00 AM 63 °F 59 °F 82% 29.67 in 12 mi ESE 4.5 mph - - Rain Light Rain
5:25 AM 64.4 °F 59.0 °F 83% 29.62 in 6.2 mi Variable 5.8 mph 17.3 mph N/A Rain Light Rain
5:55 AM 64.4 °F 59.0 °F 83% 29.65 in 6.2 mi SE 8.1 mph - N/A   Scattered Clouds
6:00 AM 64 °F 58 °F 77% 29.65 in 14 mi ESE 6.7 mph - - Rain Rain
6:25 AM 64.4 °F 57.2 °F 77% 29.62 in 6.2 mi SE 5.8 mph - N/A   Mostly Cloudy
6:55 AM 64.4 °F 59.0 °F 83% 29.65 in 6.2 mi SSE 5.8 mph - N/A   Partly Cloudy
7:00 AM 65 °F 58 °F 71% 29.68 in 19 mi SSE 8.9 mph - - Rain Rain
7:25 AM 66.2 °F 57.2 °F 73% 29.68 in 6.2 mi South 9.2 mph - N/A   Partly Cloudy
7:55 AM 64.4 °F 57.2 °F 77% 29.68 in 6.2 mi SSW 13.8 mph 28.8 mph N/A Rain Light Rain
8:00 AM 64 °F 58 °F 77% 29.70 in 9 mi SSW 11.2 mph - - Rain Light Rain Showers
8:25 AM 64.4 °F 59.0 °F 83% 29.68 in 6.2 mi SSW 12.7 mph - N/A   Scattered Clouds
8:55 AM 64.4 °F 57.2 °F 77% 29.71 in 6.2 mi SSW 11.5 mph - N/A   Unknown
9:00 AM 65 °F 57 °F 67% 29.73 in 19 mi SSW 11.2 mph - - Rain Rain
9:25 AM 64.4 °F 55.4 °F 73% 29.71 in 6.2 mi SSW 12.7 mph - N/A   Unknown
9:55 AM 64.4 °F 53.6 °F 68% 29.71 in 6.2 mi SSW 12.7 mph - N/A   Unknown
10:00 AM 64 °F 54 °F 62% 29.73 in 22 mi SSW 13.4 mph - -   Mostly Cloudy
10:25 AM 64.4 °F 53.6 °F 68% 29.71 in 6.2 mi SSW 12.7 mph - N/A   Unknown
10:55 AM 64.4 °F 53.6 °F 68% 29.71 in 6.2 mi SSW 12.7 mph - N/A   Unknown
11:00 AM 67 °F 55 °F 55% 29.74 in 19 mi SSW 11.2 mph - -   Scattered Clouds
11:25 AM 66.2 °F 53.6 °F 64% 29.74 in 6.2 mi SSW 12.7 mph - N/A   Unknown
11:55 AM 66.2 °F 55.4 °F 68% 29.74 in 6.2 mi SSW 11.5 mph - N/A   Unknown
12:00 PM 68 °F 55 °F 53% 29.76 in 25 mi SSW 8.9 mph - -   Scattered Clouds
12:25 PM 68.0 °F 53.6 °F 60% 29.74 in 6.2 mi South 10.4 mph - N/A   Unknown
12:55 PM 69.8 °F 53.6 °F 56% 29.74 in 6.2 mi South 9.2 mph - N/A   Partly Cloudy
1:00 PM 69 °F 52 °F 45% 29.77 in 18 mi SSW 8.9 mph - -   Scattered Clouds
1:25 PM 69.8 °F 53.6 °F 56% 29.74 in 6.2 mi South 9.2 mph - N/A   Unknown
1:55 PM 69.8 °F 51.8 °F 53% 29.74 in 6.2 mi South 8.1 mph - N/A   Scattered Clouds
2:00 PM 70 °F 54 °F 46% 29.77 in 19 mi SSW 8.9 mph - -   Partly Cloudy
2:25 PM 71.6 °F 53.6 °F 53% 29.74 in 6.2 mi South 9.2 mph - N/A   Partly Cloudy
2:55 PM 71.6 °F 51.8 °F 50% 29.74 in 6.2 mi South 8.1 mph - N/A   Partly Cloudy
3:00 PM 72 °F 52 °F 38% 29.78 in 17 mi South 11.2 mph - -   Scattered Clouds
3:25 PM 71.6 °F 50.0 °F 46% 29.77 in 6.2 mi South 10.4 mph - N/A   Unknown
3:55 PM 71.6 °F 50.0 °F 46% 29.77 in 6.2 mi SSE 10.4 mph - N/A   Unknown
4:00 PM 73 °F 49 °F 31% 29.78 in 22 mi South 11.2 mph - -   Scattered Clouds
4:25 PM 73.4 °F 50.0 °F 44% 29.77 in 6.2 mi South 9.2 mph - N/A   Unknown
4:55 PM 73.4 °F 48.2 °F 41% 29.74 in 6.2 mi South 9.2 mph - N/A   Unknown
5:00 PM 73 °F 48 °F 31% 29.76 in 22 mi SSE 6.7 mph - -   Partly Cloudy
5:25 PM 73.4 °F 46.4 °F 38% 29.74 in 6.2 mi SSE 9.2 mph - N/A   Unknown
5:55 PM 73.4 °F 50.0 °F 44% 29.74 in 6.2 mi South 9.2 mph - N/A   Unknown
6:00 PM 74 °F 49 °F 30% 29.77 in 25 mi South 8.9 mph - -   Scattered Clouds
6:25 PM 71.6 °F 46.4 °F 41% 29.74 in 6.2 mi South 10.4 mph - N/A   Unknown
6:55 PM 69.8 °F 50.0 °F 49% 29.74 in 6.2 mi SSW 5.8 mph - N/A   Unknown
7:00 PM 70 °F 53 °F 44% 29.76 in 28 mi SW 4.5 mph - -   Mostly Cloudy
7:25 PM 69.8 °F 53.6 °F 56% 29.74 in 6.2 mi SSW 3.5 mph - N/A   Unknown
7:55 PM 69.8 °F 51.8 °F 53% 29.74 in 6.2 mi Variable 2.3 mph - N/A   Unknown
8:00 PM 70 °F 51 °F 41% 29.76 in 28 mi SE 2.2 mph - -   Partly Cloudy
8:25 PM 69.8 °F 50.0 °F 49% 29.74 in 6.2 mi SE 4.6 mph - N/A   Unknown
8:55 PM 69.8 °F 51.8 °F 53% 29.74 in 6.2 mi SSE 8.1 mph - N/A   Mostly Cloudy
9:00 PM 69 °F 51 °F 41% 29.75 in 28 mi SE 11.2 mph - -   Mostly Cloudy
9:25 PM 66.2 °F 53.6 °F 64% 29.74 in 6.2 mi SSE 9.2 mph - N/A   Unknown
9:55 PM 64.4 °F 53.6 °F 68% 29.77 in 6.2 mi SSE 6.9 mph - N/A   Unknown
10:00 PM 64 °F 54 °F 62% 29.77 in 22 mi South 4.5 mph - - Rain Rain
10:25 PM 62.6 °F 55.4 °F 77% 29.77 in 6.2 mi SW 4.6 mph - N/A   Drizzle
10:55 PM 64.4 °F 53.6 °F 68% 29.74 in 6.2 mi SE 8.1 mph - N/A Rain Light Rain
11:00 PM 63 °F 54 °F 66% 29.78 in 25 mi ESE 8.9 mph - - Rain Light Rain Showers
11:25 PM 62.6 °F 57.2 °F 82% 29.77 in 6.2 mi ESE 6.9 mph - N/A Rain Light Rain
11:55 PM 60.8 °F 57.2 °F 88% 29.77 in 6.2 mi SE 6.9 mph - N/A Rain Light Rain